[[{"header":{"parameterUnit":"m.s-1","parameterCategory":2,"la1":30.2991,"la2":30.254,"lo1":-89.0895,"lo2":-89.0444,"dy":0.0017,"dx":0.0017,"nx":28,"ny":28,"refTime":"2024-10-10T21:00:00:Z","depth":"0","parameterNumber":2,"parameterNumberName":"U-component_of_CURRENTS"},"data":[0,0,0,0,0,0,0,0,0,0,0,0,0,0,0,0,0,0,0,0,0,0,0,0,0,0,0,0,0,0,0,0,0,0,0,0,0,0,0,0,0,0,0,0,0,0,0,0,0,0,0,0,0,0,0,0,0,0,-0.2733,-0.2734,0,-0.2728,-0.2727,-0.2726,-0.268,-0.268,-0.268,-0.268,-0.2628,-0.2626,-0.2625,0,0,0,0,0,0,0,0,0,0,0,0,0,-0.2635,-0.2637,-0.2733,-0.2734,-0.2735,-0.2728,-0.2727,-0.2726,-0.268,-0.268,-0.268,-0.268,-0.2628,-0.2627,-0.2625,0,0,0,0,0,0,0,0,0,0,0,0,0,-0.2649,-0.2637,-0.2733,-0.2719,-0.2718,-0.2728,-0.2727,-0.2725,-0.268,-0.268,-0.268,-0.2679,-0.2629,-0.2627,-0.2625,-0.2619,0,0,-0.2619,-0.2618,0,0,0,0,0,0,0,0,-0.2648,-0.2651,-0.272,-0.272,-0.272,-0.2714,-0.2674,-0.2691,-0.268,-0.2684,-0.268,-0.2679,-0.2659,-0.2655,-0.264,-0.2616,-0.2614,-0.2619,-0.2618,-0.2617,-0.2617,0,0,0,0,0,0,0,-0.2647,-0.2651,-0.272,-0.2721,-0.2721,-0.2691,-0.2692,-0.2676,-0.2664,-0.2683,-0.2683,-0.2699,-0.2657,-0.2642,-0.2638,-0.2613,-0.2619,-0.2618,-0.2616,-0.2616,-0.2544,-0.2543,0,0,0,0,0,0,-0.2674,-0.2651,-0.2721,-0.2721,-0.2694,-0.2694,-0.2694,-0.2707,-0.2665,-0.2662,-0.2699,-0.2697,-0.2645,-0.2641,-0.2637,-0.2596,-0.2617,-0.2616,-0.2614,-0.2545,-0.2544,-0.2543,0,0,0,0,0,0,-0.2671,-0.268,-0.2721,-0.2694,-0.2698,-0.2697,-0.2711,-0.2707,-0.2698,-0.268,-0.2673,-0.2696,-0.2645,-0.2639,-0.2615,-0.2595,-0.2615,-0.2613,-0.2546,-0.2545,-0.2544,-0.2535,0,0,0,0,0,0,-0.2668,-0.2679,-0.2684,-0.2696,-0.2702,-0.2726,-0.2712,-0.2708,-0.2713,-0.271,-0.2675,-0.2669,-0.2644,-0.2618,-0.2613,-0.2593,-0.2612,-0.2547,-0.2545,-0.2544,-0.2536,-0.2534,-0.2532,0,0,0,0,0,-0.2665,-0.268,-0.2684,-0.2692,-0.2713,-0.2728,-0.2725,-0.2716,-0.2714,-0.2706,-0.2679,-0.267,-0.2604,-0.2616,-0.261,-0.2589,-0.2548,-0.2546,-0.2544,-0.2538,-0.2534,-0.2532,0,0,0,0,0,0,-0.265,-0.2679,-0.2682,-0.2708,-0.2719,-0.2724,-0.2722,-0.2724,-0.2696,-0.2691,-0.2665,-0.2657,-0.2626,-0.2613,-0.2626,-0.2564,-0.2573,-0.257,-0.257,-0.2567,-0.2564,-0.2529,-0.261,0,0,0,0,0,-0.2651,-0.266,-0.2689,-0.2707,-0.2716,-0.272,-0.2723,-0.2723,-0.2714,-0.2701,-0.2675,-0.2645,-0.2614,-0.2597,-0.257,-0.2542,-0.2529,-0.2523,-0.2521,-0.2519,-0.2486,-0.2463,-0.2456,-0.2537,-0.2537,-0.2537,0,0,-0.265,-0.267,-0.2674,-0.2702,-0.2706,-0.2693,-0.2717,-0.273,-0.2701,-0.2701,-0.2646,-0.2641,-0.2607,-0.2566,-0.2551,-0.2553,-0.2495,-0.2517,-0.2515,-0.2482,-0.2461,-0.2453,-0.2445,-0.2536,-0.2536,-0.2536,0,0,-0.2632,-0.2672,-0.2656,-0.2663,-0.2684,-0.2689,-0.2698,-0.2703,-0.2687,-0.2665,-0.2641,-0.2613,-0.2587,-0.2533,-0.251,-0.2478,-0.2487,-0.2491,-0.2444,-0.2423,-0.2416,-0.241,-0.2409,-0.2402,-0.2485,-0.2485,-0.2485,0,-0.2618,-0.2608,-0.2655,-0.2637,-0.2634,-0.2684,-0.2655,-0.265,-0.264,-0.2623,-0.2647,-0.258,-0.2554,-0.2479,-0.246,-0.2467,-0.2478,-0.2461,-0.242,-0.2413,-0.2406,-0.2407,-0.2399,-0.2485,-0.2485,-0.2485,-0.2485,0,-0.2572,-0.2562,-0.2561,-0.2543,-0.2555,-0.2547,-0.2565,-0.2563,-0.2576,-0.2568,-0.2531,-0.2506,-0.2463,-0.2458,-0.2446,-0.238,-0.2413,-0.2427,-0.2429,-0.2398,-0.24,-0.2393,-0.2484,-0.2484,-0.2484,-0.2484,0,0,-0.2501,-0.2518,-0.2504,-0.2491,-0.2502,-0.2512,-0.2484,-0.2469,-0.2461,-0.2456,-0.2424,-0.2364,-0.2382,-0.2353,-0.2346,-0.2317,-0.2286,-0.2353,-0.2352,-0.2353,-0.2269,-0.2225,-0.2213,-0.2316,-0.2314,-0.2312,-0.2299,0,-0.2422,-0.2381,-0.2405,-0.2358,-0.2339,-0.2384,-0.2362,-0.2368,-0.2388,-0.2378,-0.236,-0.2338,-0.2335,-0.2337,-0.23,-0.2299,-0.2262,-0.2288,-0.2295,-0.2294,-0.226,-0.22,-0.2101,-0.2075,-0.2292,-0.2291,-0.229,0,-0.2313,-0.2317,-0.2261,-0.2278,-0.2277,-0.2263,-0.2273,-0.2264,-0.2273,-0.2294,-0.2278,-0.2295,-0.2235,-0.2263,-0.2207,-0.2241,-0.2231,-0.2232,-0.2232,-0.2176,-0.2234,-0.2134,-0.2053,-0.2047,-0.2278,-0.2279,-0.228,0,-0.221,-0.2194,-0.2156,-0.2155,-0.219,-0.2182,-0.2202,-0.2225,-0.2232,-0.2242,-0.2266,-0.2226,-0.2225,-0.2198,-0.2192,-0.2212,-0.2159,-0.2191,-0.2132,-0.2132,-0.2031,-0.2024,-0.1933,-0.2123,-0.2123,-0.2123,-0.2123,0,-0.2086,-0.2052,-0.2114,-0.2095,-0.2082,-0.2129,-0.212,-0.2147,-0.2181,-0.218,-0.2215,-0.2208,-0.2214,-0.2199,-0.2183,-0.213,-0.2147,-0.2089,-0.2104,-0.2029,-0.2022,-0.2,-0.2024,-0.2123,-0.2123,-0.2123,-0.2123,0,-0.1953,-0.1979,-0.196,-0.2012,-0.2026,-0.2024,-0.2085,-0.2086,-0.2139,-0.2144,-0.2149,-0.2192,-0.2173,-0.2173,-0.2143,-0.2116,-0.2034,-0.2048,-0.1968,-0.1971,-0.1898,-0.1926,-0.1824,-0.1777,-0.1972,-0.1971,-0.197,0,-0.1873,-0.1847,-0.1905,-0.1906,-0.1924,-0.1946,-0.1957,-0.2038,-0.2051,-0.2118,-0.2105,-0.2123,-0.209,-0.2051,-0.2005,-0.1956,-0.1965,-0.1856,-0.1835,-0.1839,-0.1884,-0.1906,-0.1876,-0.1722,-0.1719,-0.1716,-0.1714,0,-0.1741,-0.1769,-0.1775,-0.1795,-0.1807,-0.1832,-0.1863,-0.1881,-0.1966,-0.1979,-0.1984,-0.197,-0.1947,-0.1857,-0.1825,-0.1783,-0.1802,-0.18,-0.1809,-0.1656,-0.1665,-0.1647,-0.1821,-0.1691,-0.1693,-0.1695,-0.1696,-0.1697,-0.1644,-0.1634,-0.1655,-0.166,-0.1683,-0.1697,-0.1697,-0.1743,-0.1758,-0.1775,-0.1816,-0.1771,-0.1743,-0.1667,-0.1638,-0.157,-0.1619,-0.1532,-0.1565,-0.1587,-0.1519,-0.1642,-0.1529,-0.153,-0.1531,-0.1532,-0.1533,0,-0.1513,-0.1518,-0.1517,-0.153,-0.1511,-0.1572,-0.1609,-0.159,-0.1577,-0.1599,-0.1578,-0.1531,-0.1456,-0.1463,-0.1411,-0.1359,-0.1332,-0.1346,-0.1347,-0.1326,-0.1425,-0.1391,-0.1233,-0.1233,-0.1233,-0.1233,-0.1233,-0.1233,-0.1441,-0.1396,-0.1405,-0.1343,-0.1356,-0.1328,-0.1337,-0.1323,-0.1325,-0.1266,-0.1261,-0.1258,-0.1291,-0.1392,-0.1332,-0.1274,-0.1262,-0.121,-0.126,-0.1341,-0.1362,-0.1381,-0.1352,-0.1189,-0.1189,-0.1095,-0.1094,-0.1094]},{"header":{"parameterUnit":"m.s-1","parameterCategory":2,"la1":30.2991,"la2":30.254,"lo1":-89.0895,"lo2":-89.0444,"dy":0.0017,"dx":0.0017,"nx":28,"ny":28,"refTime":"2024-10-10T21:00:00:Z","depth":"0","parameterNumber":3,"parameterNumberName":"V-component_of_CURRENTS"},"data":[0,0,0,0,0,0,0,0,0,0,0,0,0,0,0,0,0,0,0,0,0,0,0,0,0,0,0,0,0,0,0,0,0,0,0,0,0,0,0,0,0,0,0,0,0,0,0,0,0,0,0,0,0,0,0,0,0,0,-0.0098,-0.0097,0,0.001,0.0011,0.0012,0.0078,0.0078,0.0078,0.0079,0.0209,0.0212,0.0215,0,0,0,0,0,0,0,0,0,0,0,0,0,-0.0184,-0.0184,-0.0099,-0.0097,-0.0096,0.001,0.0011,0.0012,0.0078,0.0078,0.0078,0.0079,0.0208,0.0212,0.0216,0,0,0,0,0,0,0,0,0,0,0,0,0,-0.012,-0.0183,-0.0099,-0.005,-0.0045,0.0009,0.0011,0.0013,0.0077,0.0078,0.0079,0.0079,0.0207,0.0211,0.0216,0.0234,0,0,0.023,0.0232,0,0,0,0,0,0,0,0,-0.0123,-0.0117,-0.0059,-0.0053,-0.0047,0.0031,0.0029,0.0088,0.0077,0.003,0.0079,0.0079,0.0152,0.0161,0.0179,0.024,0.0245,0.0231,0.0234,0.0236,0.0237,0,0,0,0,0,0,0,-0.0128,-0.012,-0.0056,-0.0057,-0.005,-0.0011,-0.0002,0.0041,0.0086,0.0035,0.004,0.0053,0.0155,0.0174,0.0182,0.0247,0.0231,0.0235,0.0238,0.024,0.0327,0.0326,0,0,0,0,0,0,-0.0144,-0.0125,-0.006,-0.0053,-0.0084,-0.001,-0.0,0.0005,0.0086,0.0099,0.0052,0.0055,0.0166,0.0177,0.0187,0.0206,0.0236,0.024,0.0243,0.0327,0.0327,0.0326,0,0,0,0,0,0,-0.0146,-0.014,-0.0064,-0.0085,-0.0073,-0.001,-0.0004,0.0007,0.0029,0.0099,0.0112,0.0063,0.0167,0.0181,0.0222,0.0211,0.0242,0.0246,0.0328,0.0327,0.0326,0.0247,0,0,0,0,0,0,-0.0149,-0.0141,-0.0146,-0.0087,-0.0072,-0.0037,-0.0004,0.0009,0.0036,0.0042,0.0113,0.0125,0.0168,0.0215,0.0227,0.0218,0.025,0.0328,0.0327,0.0326,0.025,0.0244,0.0238,0,0,0,0,0,-0.0153,-0.0163,-0.0147,-0.0139,-0.0081,-0.0037,-0.0027,0.002,0.0036,0.0042,0.0088,0.0123,0.0217,0.0218,0.0232,0.0225,0.0329,0.0328,0.0327,0.0253,0.0245,0.0238,0,0,0,0,0,0,-0.0201,-0.0155,-0.0137,-0.0132,-0.0091,-0.0026,-0.0018,0.0015,0.0056,0.006,0.0123,0.0138,0.0168,0.0208,0.0207,0.0247,0.0276,0.0278,0.0216,0.0209,0.0203,0.0181,0.0254,0,0,0,0,0,-0.0215,-0.0213,-0.0157,-0.0154,-0.0137,-0.008,-0.0058,-0.0025,0.0022,0.0041,0.0089,0.0136,0.0174,0.0199,0.0239,0.0266,0.0301,0.0269,0.0262,0.0257,0.0248,0.0285,0.0282,0.0322,0.0322,0.0322,0,0,-0.0234,-0.0207,-0.0206,-0.0164,-0.013,-0.0114,-0.0065,-0.0037,-0.0024,0.0048,0.0073,0.0118,0.0175,0.0202,0.0218,0.0235,0.0265,0.0256,0.025,0.0245,0.0284,0.028,0.0276,0.0322,0.0322,0.0322,0,0,-0.0266,-0.0246,-0.0252,-0.0224,-0.0178,-0.0142,-0.0137,-0.0078,-0.0053,-0.0019,0.0028,0.0063,0.0129,0.0163,0.0189,0.0174,0.0229,0.0188,0.0144,0.018,0.0177,0.0175,0.0218,0.022,0.0187,0.0187,0.0187,0,-0.0292,-0.0289,-0.0246,-0.0242,-0.0226,-0.0161,-0.0161,-0.0127,-0.0063,-0.0046,-0.0022,0.0061,0.0107,0.0137,0.0129,0.0159,0.0193,0.0166,0.0171,0.017,0.0169,0.0214,0.0217,0.0183,0.0184,0.0184,0.0185,0,-0.032,-0.032,-0.0322,-0.0299,-0.0277,-0.0266,-0.0215,-0.0192,-0.0155,-0.0115,-0.0077,-0.0013,0.0037,0.0053,0.0088,0.0101,0.0133,0.0156,0.0186,0.016,0.0209,0.0214,0.0178,0.0179,0.018,0.0181,0,0,-0.0378,-0.035,-0.0352,-0.0353,-0.0308,-0.0293,-0.0278,-0.0242,-0.0231,-0.0174,-0.0155,-0.0098,-0.0058,-0.0027,0.0022,0.0051,0.0073,0.0093,0.0097,0.013,0.016,0.0206,0.0216,0.0098,0.0099,0.0099,0.0199,0,-0.0416,-0.0429,-0.04,-0.0413,-0.0416,-0.0363,-0.0353,-0.0313,-0.0268,-0.0233,-0.017,-0.013,-0.0089,-0.0063,-0.0032,0.0052,0.0081,0.0044,0.0187,0.0191,0.023,0.0222,0.0251,0.0344,0.0204,0.0205,0.0205,0,-0.0452,-0.0458,-0.0479,-0.047,-0.0467,-0.0463,-0.0435,-0.0416,-0.0352,-0.0316,-0.0267,-0.0204,-0.0147,-0.0111,0.0004,-0.0019,0.0055,0.0117,0.0123,0.0195,0.0246,0.0349,0.0359,0.0473,0.0213,0.0213,0.0212,0,-0.051,-0.0514,-0.0535,-0.0532,-0.0509,-0.051,-0.0495,-0.0444,-0.0427,-0.0364,-0.0339,-0.0258,-0.0203,-0.0115,0.0021,0.0013,0.0155,0.0167,0.0276,0.0281,0.0348,0.0359,0.0479,0.0234,0.0234,0.0233,0.0233,0,-0.0558,-0.0576,-0.0566,-0.0578,-0.0606,-0.0566,-0.0575,-0.0544,-0.0495,-0.0466,-0.0387,-0.0336,-0.0202,-0.0094,0.0009,0.0169,0.0153,0.0267,0.0307,0.0323,0.0329,0.0466,0.0501,0.0237,0.0236,0.0236,0.0235,0,-0.061,-0.0601,-0.0629,-0.0628,-0.0631,-0.0649,-0.0633,-0.0629,-0.0577,-0.0535,-0.0514,-0.0386,-0.0235,-0.0094,0.0077,0.0168,0.038,0.0363,0.0377,0.0416,0.0607,0.0635,0.0784,0.0844,0.0489,0.0491,0.0492,0,-0.0632,-0.0652,-0.0677,-0.07,-0.0702,-0.0718,-0.0723,-0.0678,-0.0662,-0.0551,-0.0528,-0.0376,-0.0242,0.0022,0.0205,0.04,0.0472,0.0533,0.0514,0.0623,0.0685,0.0699,0.0739,0.0579,0.0581,0.0582,0.0584,0,-0.0678,-0.0686,-0.071,-0.0765,-0.0785,-0.0802,-0.0798,-0.079,-0.071,-0.0643,-0.0507,-0.0387,-0.0128,0.0123,0.0365,0.0477,0.0613,0.0573,0.0685,0.0761,0.0785,0.0861,0.0512,0.0599,0.0597,0.0596,0.0595,0.0595,-0.0706,-0.0742,-0.0775,-0.0823,-0.085,-0.0857,-0.0833,-0.0776,-0.0707,-0.0518,-0.0479,-0.0227,0.0056,0.041,0.0534,0.0798,0.0752,0.0875,0.0901,0.0906,0.096,0.0643,0.0773,0.0772,0.0772,0.0771,0.0771,0,-0.0734,-0.0772,-0.0828,-0.0871,-0.0902,-0.0902,-0.0856,-0.0749,-0.0598,-0.0417,-0.0248,0.0086,0.0386,0.0652,0.0977,0.1121,0.1134,0.1189,0.1215,0.124,0.0973,0.0972,0.1152,0.1152,0.1152,0.1151,0.1151,0.1151,-0.0748,-0.0805,-0.0838,-0.0897,-0.0924,-0.0898,-0.0845,-0.0594,-0.0405,-0.005,0.0197,0.0347,0.0628,0.1089,0.1394,0.1418,0.1529,0.1518,0.1575,0.1392,0.1364,0.1338,0.1348,0.1603,0.1604,0.1836,0.1838,0.184]}],[{"header":{"parameterUnit":"m.s-1","parameterCategory":2,"la1":30.2991,"la2":30.254,"lo1":-89.0895,"lo2":-89.0444,"dy":0.0017,"dx":0.0017,"nx":28,"ny":28,"refTime":"2024-10-10T21:00:00:Z","depth":"2","parameterNumber":2,"parameterNumberName":"U-component_of_CURRENTS"},"data":[0,0,0,0,0,0,0,0,0,0,0,0,0,0,0,0,0,0,0,0,0,0,0,0,0,0,0,0,0,0,0,0,0,0,0,0,0,0,0,0,0,0,0,0,0,0,0,0,0,0,0,0,0,0,0,0,0,0,-0.1946,-0.1946,0,-0.1974,-0.1976,-0.1977,-0.2032,-0.2032,-0.2032,-0.2031,-0.2011,-0.201,-0.201,0,0,0,0,0,0,0,0,0,0,0,0,0,-0.1951,-0.1951,-0.1946,-0.1945,-0.1945,-0.1974,-0.1976,-0.1977,-0.2032,-0.2032,-0.2032,-0.2031,-0.2011,-0.201,-0.201,0,0,0,0,0,0,0,0,0,0,0,0,0,-0.1973,-0.1952,-0.1946,-0.1966,-0.1967,-0.1974,-0.1976,-0.1978,-0.2032,-0.2032,-0.2031,-0.2031,-0.2011,-0.201,-0.201,-0.2009,0,0,-0.2008,-0.2007,0,0,0,0,0,0,0,0,-0.1972,-0.1975,-0.1964,-0.1964,-0.1965,-0.1988,-0.1969,-0.1981,-0.2032,-0.2021,-0.2031,-0.2031,-0.199,-0.1991,-0.2016,-0.2008,-0.2007,-0.2008,-0.2007,-0.2007,-0.2007,0,0,0,0,0,0,0,-0.197,-0.1974,-0.1971,-0.1963,-0.1963,-0.1975,-0.198,-0.1973,-0.2015,-0.2022,-0.2023,-0.2005,-0.1992,-0.2017,-0.2016,-0.2007,-0.2008,-0.2007,-0.2007,-0.2006,-0.2006,-0.2006,0,0,0,0,0,0,-0.194,-0.1972,-0.197,-0.197,-0.1953,-0.1975,-0.198,-0.1992,-0.2017,-0.2017,-0.2005,-0.2007,-0.2018,-0.2016,-0.2015,-0.2014,-0.2007,-0.2006,-0.2006,-0.2006,-0.2006,-0.2006,0,0,0,0,0,0,-0.1941,-0.1941,-0.1968,-0.196,-0.1962,-0.1973,-0.1986,-0.1992,-0.202,-0.2002,-0.2004,-0.2026,-0.2018,-0.2016,-0.202,-0.2014,-0.2006,-0.2005,-0.2005,-0.2006,-0.2006,-0.2013,0,0,0,0,0,0,-0.1942,-0.1942,-0.1952,-0.1958,-0.1961,-0.1984,-0.1985,-0.1992,-0.2002,-0.2007,-0.202,-0.2018,-0.2018,-0.2021,-0.2019,-0.2012,-0.2005,-0.2005,-0.2005,-0.2006,-0.2012,-0.2014,-0.2015,0,0,0,0,0,-0.1942,-0.1953,-0.1954,-0.1953,-0.1972,-0.1984,-0.199,-0.2004,-0.2003,-0.2029,-0.2031,-0.2018,-0.2024,-0.2021,-0.2019,-0.2012,-0.2004,-0.2005,-0.2006,-0.2012,-0.2013,-0.2015,0,0,0,0,0,0,-0.1952,-0.1958,-0.196,-0.197,-0.1978,-0.1988,-0.2001,-0.2006,-0.2033,-0.2032,-0.2026,-0.2025,-0.2026,-0.2021,-0.2018,-0.2015,-0.201,-0.2011,-0.2015,-0.2017,-0.2018,-0.2008,-0.2004,0,0,0,0,0,-0.1956,-0.197,-0.1973,-0.1977,-0.1985,-0.1995,-0.2002,-0.2011,-0.2019,-0.2033,-0.2038,-0.2036,-0.2029,-0.2025,-0.2027,-0.2024,-0.2012,-0.2018,-0.2019,-0.202,-0.2011,-0.1996,-0.1995,-0.2009,-0.2009,-0.2009,0,0,-0.1954,-0.1956,-0.1963,-0.198,-0.199,-0.2002,-0.2005,-0.2016,-0.2017,-0.2021,-0.204,-0.2044,-0.2031,-0.2034,-0.2033,-0.2027,-0.2013,-0.2021,-0.2022,-0.2012,-0.1997,-0.1995,-0.1994,-0.201,-0.201,-0.201,0,0,-0.1942,-0.1968,-0.1975,-0.1992,-0.1997,-0.2007,-0.2009,-0.203,-0.2041,-0.2049,-0.2049,-0.205,-0.205,-0.2042,-0.2032,-0.2039,-0.2023,-0.2042,-0.2034,-0.202,-0.2018,-0.2016,-0.2008,-0.2006,-0.2038,-0.2038,-0.2038,0,-0.1937,-0.1948,-0.1976,-0.1987,-0.1991,-0.2008,-0.2015,-0.2029,-0.2045,-0.2047,-0.2053,-0.2055,-0.2047,-0.2029,-0.2036,-0.2038,-0.2035,-0.2027,-0.202,-0.2018,-0.2016,-0.2008,-0.2006,-0.2038,-0.2038,-0.2038,-0.2038,0,-0.193,-0.1946,-0.1952,-0.1975,-0.1992,-0.2003,-0.2015,-0.2037,-0.2043,-0.2047,-0.2048,-0.2049,-0.2046,-0.2044,-0.2038,-0.2023,-0.2027,-0.2026,-0.2013,-0.2015,-0.2007,-0.2004,-0.2039,-0.2039,-0.2039,-0.2039,0,0,-0.1892,-0.1939,-0.194,-0.1954,-0.199,-0.2,-0.2012,-0.2024,-0.2028,-0.2041,-0.2038,-0.2028,-0.2037,-0.2026,-0.2025,-0.201,-0.1997,-0.2014,-0.2013,-0.2001,-0.1974,-0.1922,-0.1914,-0.1999,-0.1998,-0.1998,-0.1976,0,-0.1873,-0.1891,-0.192,-0.1936,-0.1952,-0.1988,-0.1998,-0.2013,-0.2027,-0.2039,-0.2025,-0.2028,-0.2025,-0.2029,-0.2012,-0.2007,-0.1988,-0.2003,-0.1978,-0.1977,-0.1926,-0.1908,-0.1766,-0.1729,-0.1973,-0.1972,-0.1972,0,-0.1844,-0.1866,-0.188,-0.1925,-0.1936,-0.1948,-0.1981,-0.1994,-0.2013,-0.2024,-0.2026,-0.2031,-0.2015,-0.2013,-0.1985,-0.1999,-0.1981,-0.1971,-0.197,-0.1913,-0.1918,-0.1766,-0.1714,-0.1967,-0.1967,-0.1967,-0.1968,0,-0.1789,-0.1832,-0.1842,-0.186,-0.1915,-0.1924,-0.1951,-0.1983,-0.1995,-0.2016,-0.203,-0.2021,-0.2018,-0.1995,-0.1976,-0.1984,-0.1943,-0.1952,-0.1885,-0.1882,-0.1748,-0.1734,-0.1915,-0.1915,-0.1915,-0.1915,-0.1915,0,-0.175,-0.1757,-0.182,-0.1828,-0.1844,-0.1895,-0.191,-0.194,-0.1976,-0.198,-0.2016,-0.2009,-0.2014,-0.1996,-0.1974,-0.1915,-0.1938,-0.1871,-0.1864,-0.1749,-0.1735,-0.1931,-0.1934,-0.1915,-0.1915,-0.1915,-0.1915,0,-0.1674,-0.1718,-0.1736,-0.1798,-0.1815,-0.1825,-0.1885,-0.1895,-0.1948,-0.1954,-0.1961,-0.1998,-0.1974,-0.197,-0.1936,-0.1905,-0.1861,-0.1832,-0.17,-0.1678,-0.1813,-0.1816,-0.1756,-0.1753,-0.1752,-0.175,-0.1749,0,-0.1632,-0.1633,-0.1699,-0.1705,-0.1729,-0.1762,-0.1778,-0.1856,-0.187,-0.1928,-0.1916,-0.1928,-0.1887,-0.184,-0.179,-0.1733,-0.1798,-0.1589,-0.1568,-0.1792,-0.1793,-0.1799,-0.1804,-0.1401,-0.1397,-0.1394,-0.1391,0,-0.1544,-0.1571,-0.1588,-0.1615,-0.1634,-0.1664,-0.1697,-0.1712,-0.1788,-0.1802,-0.1796,-0.1774,-0.1737,-0.1616,-0.1576,-0.1527,-0.159,-0.152,-0.1769,-0.1469,-0.1457,-0.1459,-0.1475,-0.1362,-0.1365,-0.1367,-0.1369,-0.137,-0.1463,-0.146,-0.1487,-0.1499,-0.1527,-0.154,-0.1523,-0.1568,-0.1578,-0.1568,-0.1624,-0.1543,-0.1539,-0.1384,-0.1322,-0.1285,-0.1391,-0.1341,-0.1351,-0.1365,-0.1333,-0.1319,-0.1192,-0.1194,-0.1196,-0.1197,-0.1198,0,-0.1351,-0.136,-0.1366,-0.1382,-0.1364,-0.1423,-0.1438,-0.1392,-0.1354,-0.1369,-0.1339,-0.119,-0.1127,-0.1129,-0.1019,-0.1011,-0.1002,-0.0982,-0.0968,-0.0997,-0.1023,-0.0974,-0.0738,-0.0736,-0.0735,-0.0734,0,0,-0.1289,-0.1254,-0.1265,-0.1205,-0.1213,-0.1141,-0.1123,-0.106,-0.1032,-0.0974,-0.0937,-0.1029,-0.1057,-0.0885,-0.086,-0.0773,-0.0869,-0.0733,-0.1098,-0.1106,-0.113,-0.1223,-0.1179,0,0,0,0,0]},{"header":{"parameterUnit":"m.s-1","parameterCategory":2,"la1":30.2991,"la2":30.254,"lo1":-89.0895,"lo2":-89.0444,"dy":0.0017,"dx":0.0017,"nx":28,"ny":28,"refTime":"2024-10-10T21:00:00:Z","depth":"2","parameterNumber":3,"parameterNumberName":"V-component_of_CURRENTS"},"data":[0,0,0,0,0,0,0,0,0,0,0,0,0,0,0,0,0,0,0,0,0,0,0,0,0,0,0,0,0,0,0,0,0,0,0,0,0,0,0,0,0,0,0,0,0,0,0,0,0,0,0,0,0,0,0,0,0,0,-0.026,-0.026,0,-0.0177,-0.0176,-0.0175,-0.0105,-0.0105,-0.0105,-0.0105,0.0016,0.0019,0.0022,0,0,0,0,0,0,0,0,0,0,0,0,0,-0.0294,-0.0294,-0.026,-0.026,-0.0259,-0.0178,-0.0176,-0.0174,-0.0105,-0.0105,-0.0105,-0.0105,0.0015,0.0019,0.0022,0,0,0,0,0,0,0,0,0,0,0,0,0,-0.0247,-0.0293,-0.026,-0.0219,-0.0215,-0.0178,-0.0176,-0.0174,-0.0105,-0.0105,-0.0105,-0.0104,0.0014,0.0018,0.0023,0.0045,0,0,0.0037,0.0039,0,0,0,0,0,0,0,0,-0.0249,-0.0245,-0.0226,-0.0222,-0.0218,-0.0157,-0.0144,-0.0101,-0.0105,-0.0141,-0.0105,-0.0104,-0.0042,-0.0033,-0.001,0.0051,0.0056,0.0037,0.004,0.0042,0.0043,0,0,0,0,0,0,0,-0.0253,-0.0247,-0.0221,-0.0225,-0.0221,-0.0184,-0.0177,-0.0135,-0.0089,-0.0137,-0.0134,-0.0134,-0.0039,-0.0015,-0.0007,0.0058,0.0037,0.0041,0.0044,0.0046,0.0158,0.0158,0,0,0,0,0,0,-0.0279,-0.0251,-0.0224,-0.0219,-0.024,-0.0184,-0.0176,-0.0172,-0.009,-0.0079,-0.0135,-0.0132,-0.0023,-0.0012,-0.0002,0.0035,0.0042,0.0046,0.0049,0.0157,0.0158,0.0158,0,0,0,0,0,0,-0.028,-0.0277,-0.0227,-0.0238,-0.023,-0.0185,-0.018,-0.017,-0.0144,-0.0089,-0.0077,-0.012,-0.0022,-0.0009,0.0038,0.004,0.0048,0.0052,0.0157,0.0157,0.0158,0.0106,0,0,0,0,0,0,-0.0281,-0.0278,-0.0282,-0.024,-0.0231,-0.0207,-0.0181,-0.0169,-0.0149,-0.0143,-0.0073,-0.0061,-0.0021,0.0031,0.0043,0.0046,0.0056,0.0157,0.0157,0.0158,0.0107,0.0104,0.0102,0,0,0,0,0,-0.0282,-0.0289,-0.0282,-0.0279,-0.0238,-0.0208,-0.0198,-0.0161,-0.0149,-0.0136,-0.0089,-0.0063,0.0042,0.0035,0.0049,0.0053,0.0156,0.0157,0.0158,0.0108,0.0105,0.0102,0,0,0,0,0,0,-0.0308,-0.0282,-0.0274,-0.0273,-0.0247,-0.0198,-0.0189,-0.0165,-0.0117,-0.0112,-0.0056,-0.0041,-0.0001,0.0034,0.0025,0.0087,0.0102,0.0105,0.006,0.0057,0.0055,0.004,0.006,0,0,0,0,0,-0.0319,-0.0316,-0.0285,-0.0286,-0.0274,-0.0233,-0.0217,-0.0192,-0.015,-0.0128,-0.008,-0.003,0.0013,0.0039,0.0083,0.0119,0.0149,0.0131,0.0128,0.0125,0.0123,0.0165,0.0166,0.016,0.016,0.016,0,0,-0.0332,-0.0318,-0.0318,-0.0292,-0.0266,-0.0248,-0.022,-0.0199,-0.018,-0.0123,-0.0079,-0.0038,0.0019,0.006,0.0081,0.009,0.0143,0.0126,0.0123,0.0122,0.0166,0.0167,0.0167,0.016,0.016,0.016,0,0,-0.0353,-0.0342,-0.0342,-0.032,-0.0293,-0.0265,-0.0263,-0.0214,-0.0187,-0.0148,-0.0103,-0.0062,0.0006,0.0049,0.0078,0.0087,0.0125,0.0099,0.0078,0.0119,0.012,0.0121,0.0155,0.016,0.01,0.01,0.01,0,-0.0371,-0.0366,-0.0337,-0.0327,-0.0317,-0.0276,-0.0269,-0.0234,-0.0176,-0.0156,-0.0142,-0.0045,0.0001,0.0052,0.0055,0.0081,0.0107,0.0083,0.0114,0.0116,0.0118,0.0153,0.0159,0.0097,0.0098,0.0098,0.0098,0,-0.0381,-0.0379,-0.0377,-0.0352,-0.0333,-0.0322,-0.028,-0.0253,-0.0223,-0.0188,-0.0136,-0.0073,-0.0018,0.0003,0.0033,0.007,0.0085,0.0102,0.0118,0.0115,0.0153,0.016,0.0094,0.0095,0.0095,0.0096,0,0,-0.042,-0.0391,-0.0392,-0.0389,-0.0347,-0.0335,-0.0305,-0.0267,-0.025,-0.0194,-0.0166,-0.0095,-0.0065,-0.0031,0.0013,0.005,0.0085,0.0076,0.0079,0.0102,0.0171,0.0198,0.0208,0.0105,0.0106,0.0107,0.0191,0,-0.0439,-0.0439,-0.0412,-0.041,-0.0407,-0.0363,-0.034,-0.03,-0.0259,-0.0217,-0.0155,-0.0109,-0.0076,-0.0052,-0.0011,0.0065,0.0101,0.0061,0.0179,0.0182,0.0199,0.0216,0.0197,0.0272,0.0198,0.0199,0.02,0,-0.0456,-0.0456,-0.0461,-0.0446,-0.044,-0.0429,-0.0394,-0.0367,-0.0298,-0.0265,-0.0211,-0.0156,-0.0088,-0.0065,0.0053,0.0024,0.0089,0.0145,0.015,0.0197,0.0221,0.0265,0.0287,0.0212,0.0211,0.021,0.0209,0,-0.0502,-0.0491,-0.0502,-0.0495,-0.0466,-0.0461,-0.0442,-0.0385,-0.0363,-0.0294,-0.0271,-0.0182,-0.0133,-0.0046,0.0071,0.0062,0.02,0.0206,0.0291,0.0294,0.0313,0.0316,0.0285,0.0284,0.0284,0.0284,0.0284,0,-0.0533,-0.0542,-0.0528,-0.0535,-0.055,-0.0509,-0.0507,-0.0471,-0.0416,-0.0385,-0.0305,-0.0257,-0.0127,-0.0028,0.0065,0.0204,0.02,0.0293,0.0321,0.0295,0.0295,0.027,0.0268,0.0287,0.0286,0.0286,0.0285,0,-0.0579,-0.0566,-0.0584,-0.0573,-0.0573,-0.0585,-0.0561,-0.055,-0.0494,-0.045,-0.0429,-0.0304,-0.017,-0.0039,0.0123,0.0203,0.0328,0.0376,0.0335,0.0357,0.0392,0.0386,0.0476,0.0478,0.0479,0.048,0.0481,0,-0.0599,-0.0613,-0.0628,-0.0646,-0.0645,-0.0653,-0.0652,-0.06,-0.0579,-0.047,-0.045,-0.0309,-0.0192,0.0047,0.0211,0.0385,0.0378,0.0462,0.0446,0.0395,0.0414,0.0405,0.0397,0.045,0.0451,0.0452,0.0452,0,-0.0642,-0.0647,-0.0665,-0.071,-0.0725,-0.0734,-0.0725,-0.0715,-0.0633,-0.057,-0.045,-0.0344,-0.0112,0.0092,0.0309,0.0403,0.0431,0.048,0.0454,0.0401,0.0378,0.0393,0.0385,0.0457,0.0457,0.0456,0.0456,0.0456,-0.0672,-0.0702,-0.0729,-0.0769,-0.0791,-0.0797,-0.0795,-0.0752,-0.0694,-0.0572,-0.0456,-0.0273,-0.0091,0.0228,0.0374,0.0501,0.0501,0.0533,0.0528,0.0524,0.0503,0.0483,0.0577,0.0577,0.0578,0.0578,0.0578,0,-0.0705,-0.0736,-0.0784,-0.0823,-0.0855,-0.0849,-0.0828,-0.0814,-0.0731,-0.0585,-0.0438,-0.0195,0.0048,0.0223,0.0438,0.0567,0.0542,0.0576,0.0521,0.0516,0.0512,0.0487,0.0559,0.056,0.056,0.056,0,0,-0.0722,-0.0774,-0.08,-0.0864,-0.0891,-0.0904,-0.0885,-0.0846,-0.0758,-0.0596,-0.0422,-0.0205,0.0032,0.0183,0.0344,0.045,0.0434,0.045,0.0453,0.0361,0.0354,0.048,0.0437,0,0,0,0,0]}],[{"header":{"parameterUnit":"m.s-1","parameterCategory":2,"la1":30.2991,"la2":30.254,"lo1":-89.0895,"lo2":-89.0444,"dy":0.0017,"dx":0.0017,"nx":28,"ny":28,"refTime":"2024-10-10T21:00:00:Z","depth":"4","parameterNumber":2,"parameterNumberName":"U-component_of_CURRENTS"},"data":[0,0,0,0,0,0,0,0,0,0,0,0,0,0,0,0,0,0,0,0,0,0,0,0,0,0,0,0,0,0,0,0,0,0,0,0,0,0,0,0,0,0,0,0,0,0,0,0,0,0,0,0,0,0,0,0,0,0,-0.1181,-0.1181,0,-0.1231,-0.1232,-0.1232,-0.1277,-0.1278,-0.1278,-0.1279,-0.1332,-0.1333,-0.1334,0,0,0,0,0,0,0,0,0,0,0,0,0,-0.1129,-0.113,-0.1181,-0.1181,-0.1182,-0.1231,-0.1232,-0.1233,-0.1277,-0.1278,-0.1278,-0.1279,-0.1332,-0.1333,-0.1334,0,0,0,0,0,0,0,0,0,0,0,0,0,-0.1163,-0.113,-0.1181,-0.121,-0.1213,-0.1231,-0.1232,-0.1233,-0.1277,-0.1278,-0.1279,-0.1279,-0.1332,-0.1333,-0.1334,-0.1329,0,0,-0.1339,-0.134,0,0,0,0,0,0,0,0,-0.1161,-0.1165,-0.1205,-0.1208,-0.1211,-0.1248,-0.1233,-0.1265,-0.1277,-0.1253,-0.1279,-0.128,-0.1304,-0.1308,-0.1316,-0.1331,-0.1333,-0.1339,-0.134,-0.1341,-0.1341,0,0,0,0,0,0,0,-0.1159,-0.1163,-0.1201,-0.1206,-0.121,-0.1223,-0.1228,-0.124,-0.1274,-0.1255,-0.1259,-0.1263,-0.1306,-0.1314,-0.1317,-0.1334,-0.1339,-0.134,-0.1341,-0.1342,-0.1421,-0.1423,0,0,0,0,0,0,-0.1151,-0.1161,-0.12,-0.1203,-0.1187,-0.1223,-0.1229,-0.1236,-0.1274,-0.128,-0.1263,-0.1265,-0.1312,-0.1316,-0.1319,-0.1379,-0.1341,-0.1342,-0.1343,-0.142,-0.1422,-0.1423,0,0,0,0,0,0,-0.1149,-0.1154,-0.1198,-0.1182,-0.1189,-0.1223,-0.123,-0.1237,-0.1269,-0.1279,-0.1286,-0.1291,-0.1312,-0.1317,-0.1355,-0.1379,-0.1343,-0.1344,-0.1419,-0.1421,-0.1422,-0.1456,0,0,0,0,0,0,-0.1148,-0.1153,-0.1169,-0.1182,-0.1189,-0.122,-0.123,-0.1237,-0.1269,-0.1274,-0.1305,-0.131,-0.1313,-0.1353,-0.1357,-0.138,-0.1345,-0.1417,-0.142,-0.1422,-0.1454,-0.1459,-0.1464,0,0,0,0,0,-0.1146,-0.1162,-0.117,-0.1175,-0.1206,-0.122,-0.1226,-0.1252,-0.127,-0.1285,-0.1314,-0.131,-0.137,-0.1355,-0.1359,-0.1384,-0.1416,-0.1419,-0.1422,-0.1451,-0.1458,-0.1464,0,0,0,0,0,0,-0.1145,-0.1168,-0.1177,-0.12,-0.1214,-0.1228,-0.1252,-0.1265,-0.1299,-0.1313,-0.1325,-0.1331,-0.1372,-0.1374,-0.1357,-0.1414,-0.1393,-0.1397,-0.1414,-0.1421,-0.1426,-0.1441,-0.1346,0,0,0,0,0,-0.1152,-0.1176,-0.1188,-0.1208,-0.1218,-0.1239,-0.1254,-0.1268,-0.1292,-0.1309,-0.1331,-0.1358,-0.1381,-0.14,-0.1416,-0.1447,-0.1437,-0.1467,-0.1472,-0.1476,-0.1492,-0.149,-0.1496,-0.1432,-0.1432,-0.1432,0,0,-0.1159,-0.1174,-0.1189,-0.1211,-0.1229,-0.1254,-0.1251,-0.1279,-0.131,-0.1308,-0.1367,-0.1375,-0.1394,-0.143,-0.1448,-0.1439,-0.1487,-0.1479,-0.1483,-0.1497,-0.1493,-0.1499,-0.1505,-0.1434,-0.1434,-0.1433,0,0,-0.1175,-0.1197,-0.1221,-0.1239,-0.1265,-0.1278,-0.129,-0.1314,-0.134,-0.138,-0.1392,-0.1422,-0.1455,-0.1477,-0.1491,-0.1536,-0.1511,-0.1537,-0.1579,-0.1577,-0.1582,-0.1586,-0.1568,-0.1571,-0.1542,-0.1543,-0.1543,0,-0.1185,-0.1217,-0.1228,-0.1255,-0.1283,-0.1293,-0.1326,-0.1349,-0.1385,-0.1408,-0.1406,-0.1466,-0.1482,-0.1531,-0.1552,-0.1549,-0.1533,-0.1551,-0.1582,-0.1586,-0.159,-0.1571,-0.1573,-0.1545,-0.1544,-0.1544,-0.1544,0,-0.1207,-0.1251,-0.1268,-0.1311,-0.1336,-0.1368,-0.1395,-0.1427,-0.1454,-0.147,-0.152,-0.1535,-0.157,-0.1578,-0.1584,-0.1624,-0.1597,-0.1583,-0.1563,-0.1598,-0.1576,-0.1578,-0.1547,-0.1547,-0.1546,-0.1546,0,0,-0.1191,-0.1271,-0.1283,-0.1322,-0.1376,-0.1393,-0.1452,-0.1498,-0.1533,-0.1561,-0.1602,-0.165,-0.1645,-0.1662,-0.1663,-0.1672,-0.1684,-0.1645,-0.1644,-0.1622,-0.1663,-0.1552,-0.1542,-0.1665,-0.1666,-0.1667,-0.1632,0,-0.1214,-0.1282,-0.1316,-0.1391,-0.1432,-0.1473,-0.1521,-0.1561,-0.1592,-0.1628,-0.1648,-0.168,-0.168,-0.1691,-0.1703,-0.1688,-0.1692,-0.1694,-0.1639,-0.1637,-0.1528,-0.1542,-0.1669,-0.1633,-0.1633,-0.1633,-0.1634,0,-0.1227,-0.1274,-0.1353,-0.1444,-0.1464,-0.1506,-0.1582,-0.1623,-0.1672,-0.1693,-0.1725,-0.1726,-0.1761,-0.174,-0.1743,-0.1739,-0.1715,-0.1696,-0.1694,-0.1583,-0.1529,-0.1594,-0.1636,-0.1636,-0.1636,-0.1636,-0.1635,0,-0.1208,-0.1306,-0.1374,-0.1406,-0.1496,-0.1541,-0.1586,-0.1645,-0.1675,-0.1728,-0.1741,-0.1773,-0.178,-0.1769,-0.174,-0.1741,-0.1714,-0.1704,-0.1583,-0.1574,-0.1669,-0.1665,-0.1705,-0.1705,-0.1705,-0.1705,-0.1705,0,-0.1218,-0.1275,-0.1374,-0.1407,-0.1473,-0.1539,-0.16,-0.1646,-0.1699,-0.1714,-0.1766,-0.1763,-0.1787,-0.1769,-0.1744,-0.1658,-0.1716,-0.1593,-0.156,-0.1683,-0.1681,-0.1669,-0.1666,-0.1704,-0.1704,-0.1704,-0.1704,0,-0.1183,-0.126,-0.1333,-0.1435,-0.1467,-0.1507,-0.1594,-0.1621,-0.1688,-0.1706,-0.172,-0.1759,-0.1729,-0.1728,-0.1699,-0.1644,-0.1586,-0.1543,-0.1668,-0.1642,-0.1448,-0.1447,-0.1405,-0.14,-0.1397,-0.1394,-0.1392,0,-0.117,-0.1207,-0.1323,-0.1352,-0.1401,-0.1471,-0.1506,-0.1598,-0.1615,-0.1676,-0.1661,-0.1673,-0.1677,-0.1539,-0.1564,-0.1501,-0.1485,-0.1452,-0.1467,-0.1446,-0.1419,-0.1423,-0.1427,-0.1386,-0.1385,-0.1384,-0.1383,0,-0.1119,-0.1171,-0.1219,-0.1284,-0.1336,-0.1385,-0.1442,-0.1445,-0.1526,-0.1603,-0.1547,-0.1518,-0.1481,-0.1448,-0.1408,-0.1368,-0.1474,-0.1415,-0.1423,-0.1437,-0.1423,-0.14,-0.1408,-0.1371,-0.1373,-0.1374,-0.1374,0,-0.1062,-0.108,-0.1146,-0.1187,-0.125,-0.1266,-0.1319,-0.1326,-0.1358,-0.1427,-0.1399,-0.1409,-0.1451,-0.1377,-0.1338,-0.1291,-0.1277,-0.1241,-0.1257,-0.1271,-0.1245,-0.1209,-0.1062,0,0,0,0,0,-0.0997,-0.1002,-0.1037,-0.1079,-0.1135,-0.1166,-0.1251,-0.1304,-0.1385,-0.1302,-0.1346,-0.1298,-0.1239,-0.1253,-0.1173,-0.129,-0.1292,-0.1195,-0.1263,-0.1303,-0.1317,-0.1299,0,0,0,0,0,0,-0.0952,-0.0983,-0.1,-0.0972,-0.0968,-0.1019,-0.1066,-0.1129,-0.1094,-0.1174,-0.1144,-0.1206,-0.1167,-0.124,-0.1134,-0.1139,-0.1155,-0.1214,-0.121,-0.1295,-0.1308,-0.1319,-0.1305,0,0,0,0,0]},{"header":{"parameterUnit":"m.s-1","parameterCategory":2,"la1":30.2991,"la2":30.254,"lo1":-89.0895,"lo2":-89.0444,"dy":0.0017,"dx":0.0017,"nx":28,"ny":28,"refTime":"2024-10-10T21:00:00:Z","depth":"4","parameterNumber":3,"parameterNumberName":"V-component_of_CURRENTS"},"data":[0,0,0,0,0,0,0,0,0,0,0,0,0,0,0,0,0,0,0,0,0,0,0,0,0,0,0,0,0,0,0,0,0,0,0,0,0,0,0,0,0,0,0,0,0,0,0,0,0,0,0,0,0,0,0,0,0,0,-0.0253,-0.0252,0,-0.021,-0.0209,-0.0208,-0.0172,-0.0172,-0.0172,-0.0172,-0.0091,-0.0089,-0.0087,0,0,0,0,0,0,0,0,0,0,0,0,0,-0.0266,-0.0266,-0.0253,-0.0252,-0.0252,-0.021,-0.0209,-0.0208,-0.0172,-0.0172,-0.0172,-0.0172,-0.0092,-0.009,-0.0087,0,0,0,0,0,0,0,0,0,0,0,0,0,-0.0243,-0.0266,-0.0253,-0.0231,-0.0229,-0.021,-0.0209,-0.0208,-0.0172,-0.0172,-0.0172,-0.0172,-0.0093,-0.009,-0.0087,-0.0072,0,0,-0.0077,-0.0076,0,0,0,0,0,0,0,0,-0.0245,-0.0242,-0.0235,-0.0233,-0.023,-0.0199,-0.0184,-0.0161,-0.0173,-0.0191,-0.0172,-0.0172,-0.0126,-0.012,-0.0109,-0.0068,-0.0065,-0.0077,-0.0075,-0.0074,-0.0073,0,0,0,0,0,0,0,-0.0246,-0.0244,-0.0233,-0.0234,-0.0232,-0.0211,-0.0208,-0.018,-0.0157,-0.0189,-0.0187,-0.0187,-0.0124,-0.0112,-0.0107,-0.0063,-0.0077,-0.0075,-0.0073,-0.0071,0.0015,0.0016,0,0,0,0,0,0,-0.0259,-0.0246,-0.0234,-0.0232,-0.024,-0.0212,-0.0207,-0.0207,-0.0158,-0.0152,-0.0187,-0.0186,-0.0117,-0.011,-0.0104,-0.0068,-0.0074,-0.0071,-0.0069,0.0015,0.0015,0.0016,0,0,0,0,0,0,-0.026,-0.0259,-0.0236,-0.024,-0.0236,-0.0212,-0.0211,-0.0206,-0.0196,-0.0158,-0.015,-0.0183,-0.0117,-0.0108,-0.0078,-0.0066,-0.007,-0.0067,0.0014,0.0015,0.0016,-0.0007,0,0,0,0,0,0,-0.026,-0.0259,-0.0266,-0.0241,-0.0236,-0.0229,-0.0211,-0.0205,-0.0197,-0.0194,-0.0151,-0.0143,-0.0116,-0.0083,-0.0075,-0.0061,-0.0065,0.0014,0.0015,0.0015,-0.0007,-0.0007,-0.0008,0,0,0,0,0,-0.0261,-0.0267,-0.0267,-0.0265,-0.0246,-0.023,-0.0225,-0.0206,-0.0197,-0.0195,-0.0163,-0.0145,-0.0071,-0.008,-0.0071,-0.0056,0.0013,0.0014,0.0015,-0.0007,-0.0007,-0.0008,0,0,0,0,0,0,-0.0275,-0.0264,-0.0262,-0.0265,-0.0254,-0.0225,-0.0222,-0.021,-0.0183,-0.0179,-0.0141,-0.0131,-0.0099,-0.0077,-0.0088,-0.0028,-0.0025,-0.0022,-0.0045,-0.0045,-0.0045,-0.0047,-0.0062,0,0,0,0,0,-0.0284,-0.0288,-0.0272,-0.0276,-0.0271,-0.0248,-0.0241,-0.0228,-0.0202,-0.019,-0.016,-0.0124,-0.0087,-0.0067,-0.0035,-0.0006,0.0018,0.0011,0.001,0.001,0.0015,0.006,0.0064,0.002,0.002,0.0019,0,0,-0.0294,-0.0288,-0.0291,-0.0281,-0.0268,-0.0256,-0.0242,-0.0233,-0.0217,-0.0185,-0.0155,-0.0126,-0.0081,-0.0045,-0.0028,-0.0025,0.0034,0.0011,0.0011,0.0016,0.0062,0.0066,0.007,0.002,0.002,0.002,0,0,-0.0307,-0.0306,-0.0309,-0.0299,-0.0286,-0.0269,-0.0269,-0.0242,-0.0225,-0.0199,-0.0166,-0.013,-0.0085,-0.0042,-0.0015,0.0003,0.0028,0.0009,0.0011,0.0054,0.0058,0.0062,0.0088,0.0094,0.0012,0.0012,0.0012,0,-0.0321,-0.0319,-0.0308,-0.0302,-0.0294,-0.0275,-0.0269,-0.0246,-0.0213,-0.0194,-0.0194,-0.0112,-0.0077,-0.0017,-0.001,0.0004,0.0022,0.0006,0.0053,0.0058,0.0062,0.0088,0.0095,0.0011,0.0011,0.0011,0.0011,0,-0.0324,-0.0326,-0.0325,-0.0311,-0.0301,-0.0295,-0.0265,-0.0248,-0.0229,-0.0203,-0.0154,-0.0108,-0.0059,-0.004,-0.0018,0.0035,0.0034,0.0044,0.0051,0.0065,0.0091,0.0099,0.0009,0.001,0.001,0.001,0,0,-0.0349,-0.0333,-0.0334,-0.0333,-0.0306,-0.03,-0.027,-0.0237,-0.0218,-0.0181,-0.0148,-0.008,-0.0063,-0.0031,0.0003,0.0045,0.0089,0.0053,0.0056,0.0074,0.017,0.015,0.0156,0.0102,0.0103,0.0105,0.0172,0,-0.0358,-0.0358,-0.034,-0.0337,-0.0334,-0.0304,-0.028,-0.0246,-0.0214,-0.0178,-0.0118,-0.0078,-0.0056,-0.0037,0.001,0.0069,0.0111,0.007,0.0159,0.0162,0.0138,0.0166,0.011,0.0178,0.018,0.0181,0.0182,0,-0.0365,-0.0366,-0.0369,-0.0355,-0.0349,-0.0343,-0.0307,-0.0282,-0.0219,-0.0193,-0.014,-0.0099,-0.0026,-0.0017,0.0095,0.0063,0.0115,0.016,0.0164,0.0161,0.0157,0.0166,0.0197,0.0196,0.0195,0.0194,0.0193,0,-0.0393,-0.0385,-0.0393,-0.0388,-0.0365,-0.036,-0.0345,-0.0293,-0.027,-0.0205,-0.0185,-0.0098,-0.0058,0.0024,0.0112,0.0104,0.0228,0.023,0.0264,0.0262,0.0269,0.0265,0.0314,0.0314,0.0314,0.0314,0.0313,0,-0.0407,-0.0415,-0.0413,-0.0419,-0.0429,-0.0397,-0.039,-0.0358,-0.0307,-0.0278,-0.0205,-0.0163,-0.0046,0.0036,0.0114,0.0209,0.0231,0.0273,0.0285,0.0256,0.025,0.0274,0.0269,0.0316,0.0316,0.0315,0.0315,0,-0.0435,-0.0432,-0.0448,-0.0443,-0.0446,-0.0456,-0.0438,-0.0424,-0.0374,-0.0334,-0.0315,-0.0205,-0.0098,0.0014,0.0155,0.0205,0.0304,0.0334,0.0287,0.0294,0.0307,0.03,0.0378,0.0378,0.0378,0.0378,0.0378,0,-0.0447,-0.046,-0.0483,-0.0503,-0.0508,-0.0516,-0.0517,-0.047,-0.0449,-0.0357,-0.0337,-0.0224,-0.0145,0.0037,0.015,0.0298,0.0317,0.0359,0.0345,0.0313,0.0318,0.031,0.0303,0.0378,0.0378,0.0378,0.0378,0,-0.0472,-0.0488,-0.0505,-0.0553,-0.0573,-0.0581,-0.0577,-0.0562,-0.0492,-0.0451,-0.0341,-0.0229,-0.0108,0.0036,0.015,0.0256,0.0326,0.0359,0.036,0.0347,0.0314,0.0317,0.031,0.0378,0.0378,0.0378,0.0378,0,-0.0496,-0.0522,-0.0556,-0.0592,-0.0625,-0.0632,-0.0621,-0.0575,-0.0537,-0.0424,-0.0389,-0.0239,-0.0142,0.0015,0.0121,0.0221,0.0243,0.0266,0.0272,0.0273,0.0219,0.0159,0.0196,0,0,0,0,0,-0.0513,-0.0545,-0.0588,-0.0627,-0.0661,-0.0675,-0.0652,-0.0624,-0.0557,-0.0485,-0.0429,-0.0307,-0.0121,-0.0034,0.0062,0.0101,0.0241,0.0214,0.0264,0.0378,0.0378,0.033,0,0,0,0,0,0,-0.0525,-0.0572,-0.0593,-0.0647,-0.068,-0.0706,-0.069,-0.0642,-0.0585,-0.0504,-0.0401,-0.0314,-0.0135,-0.0188,0.005,0.0084,0.0124,0.0311,0.0313,0.0378,0.0378,0.0378,0.0329,0,0,0,0,0]}]]